Location: Unspecified
(49.8670°N, 0.0000°E)
Time: 17:53:50
(UTC+00:00)

Tiros 1 despin weight - All Passes

Search period start: 17 June 2019 00:00
Search period end: 27 June 2019 00:00
Orbit: 595 x 642 km, 48.2° (Epoch: 17 June)

Date Brightness Start Highest point End Pass type
(mag) Time Alt. Az. Time Alt. Az. Time Alt. Az.
17 Jun - 00:07:50 10° SSE 00:09:11 11° SE 00:10:33 10° ESE visible
17 Jun - 01:45:47 10° SW 01:49:51 37° SSE 01:53:56 10° E visible
17 Jun - 03:26:42 10° WSW 03:31:06 70° S 03:35:31 10° E daylight
17 Jun - 05:08:09 10° W 05:12:30 59° SSW 05:16:53 10° ESE daylight
17 Jun - 06:49:56 10° W 06:53:33 25° SSW 06:57:11 10° SSE daylight
18 Jun - 00:22:15 10° S 00:25:24 19° SE 00:28:34 10° E visible
18 Jun - 02:02:02 10° WSW 02:06:20 52° SSE 02:10:38 10° E visible
18 Jun - 03:43:17 10° W 03:47:41 72° S 03:52:07 10° E daylight
18 Jun - 05:24:48 10° W 05:29:01 45° SSW 05:33:16 10° SE daylight
18 Jun - 07:07:14 10° WSW 07:09:50 15° SW 07:12:25 10° S daylight
19 Jun - 00:37:52 10° SSW 00:41:44 30° SSE 00:45:36 10° E visible
19 Jun - 02:18:29 10° WSW 02:22:52 65° S 02:27:16 10° E visible
19 Jun - 03:59:54 10° W 04:04:17 66° S 04:08:41 10° ESE daylight
19 Jun - 05:41:33 10° W 05:45:27 31° SSW 05:49:23 10° SSE daylight
19 Jun - 23:14:58 10° S 23:17:23 14° SE 23:19:47 10° ESE visible
20 Jun - 00:53:57 10° SW 00:58:09 43° SSE 01:02:21 10° E visible
20 Jun - 02:35:03 10° W 02:39:27 72° S 02:43:53 10° E visible
20 Jun - 04:16:32 10° W 04:20:50 53° SSW 04:25:09 10° ESE daylight
20 Jun - 05:58:32 10° W 06:01:47 20° SW 06:05:03 10° SSE daylight
20 Jun - 23:30:06 10° SSW 23:33:38 23° SSE 23:37:10 10° E visible
21 Jun - 01:10:19 10° WSW 01:14:40 58° SSE 01:19:00 10° E visible
21 Jun - 02:51:39 10° W 02:56:04 71° S 03:00:28 10° ESE visible
21 Jun - 04:33:13 10° W 04:37:19 38° SSW 04:41:26 10° SE daylight
21 Jun - 06:16:20 10° WSW 06:18:00 12° SW 06:19:41 10° SSW daylight
21 Jun - 22:08:40 10° SE 22:09:22 10° SE 22:10:05 10° SE visible
21 Jun - 23:45:57 10° SW 23:50:00 35° SSE 23:54:03 10° E visible
22 Jun - 01:26:49 10° WSW 01:31:14 69° S 01:35:37 10° E visible
22 Jun - 03:08:16 10° W 03:12:38 61° SSW 03:17:00 10° ESE visible
22 Jun - 04:50:02 10° W 04:53:42 26° SSW 04:57:24 10° SSE daylight
22 Jun - 22:22:32 10° S 22:25:35 18° SE 22:28:36 10° E visible
23 Jun - 00:02:10 10° SW 00:06:28 50° SSE 00:10:45 10° E visible
23 Jun - 01:43:24 10° W 01:47:50 72° S 01:52:14 10° E visible
23 Jun - 03:24:55 10° W 03:29:10 47° SSW 03:33:24 10° SE daylight
23 Jun - 05:07:14 10° WSW 05:10:00 16° SW 05:12:45 10° S daylight
23 Jun - 22:38:03 10° SSW 22:41:53 28° SSE 22:45:41 10° E visible
24 Jun - 00:18:36 10° WSW 00:23:00 63° SSE 00:27:23 10° E visible
24 Jun - 02:00:01 10° W 02:04:25 67° S 02:08:49 10° ESE visible
24 Jun - 03:41:39 10° W 03:45:36 33° SSW 03:49:34 10° SE daylight
24 Jun - 21:15:21 10° SSE 21:17:33 14° SE 21:19:44 10° ESE visible
24 Jun - 22:54:06 10° SW 22:58:17 41° SSE 23:02:28 10° E visible
25 Jun - 00:35:09 10° W 00:39:36 72° S 00:44:00 10° E visible
25 Jun - 02:16:38 10° W 02:20:58 55° SSW 02:25:17 10° ESE visible
25 Jun - 03:58:35 10° W 04:01:57 21° SW 04:05:19 10° SSE daylight
25 Jun - 21:30:19 10° SSW 21:33:47 22° SE 21:37:14 10° E visible
25 Jun - 23:10:25 10° WSW 23:14:48 56° SSE 23:19:08 10° E visible
26 Jun - 00:51:45 10° W 00:56:11 71° S 01:00:35 10° E visible
26 Jun - 02:33:19 10° W 02:37:29 40° SSW 02:41:36 10° SE visible
26 Jun - 04:16:10 10° WSW 04:18:11 13° SW 04:20:12 10° SSW daylight
26 Jun - 21:46:06 10° SW 21:50:08 34° SSE 21:54:09 10° E visible
26 Jun - 23:26:55 10° WSW 23:31:21 68° S 23:35:45 10° E visible
